Current Version              Previous Version:    01  02  03  04  05  06  07  08  09  10  11  12  13  14  15  16  17  18  19  20  21  22  23  24  25  26  27  28  29  30  
   31  32  33  34  35  36  37  38  39  40  41  42  43  44  45  46  47  48  49  50  51  52  53  54  55  56  57  58  59  60  

[Printable]
403
ASUS44 KFWD 240510
RWRTX
NORTH TEXAS HOURLY WEATHER ROUNDUP
NATIONAL WEATHER SERVICE FORT WORTH TX
1200 AM CDT THU APR 24 2014

NOTE: "FAIR" INDICATES FEW OR NO CLOUDS BELOW 12,000 FEET WITH NO
SIGNIFICANT WEATHER AND/OR OBSTRUCTIONS TO VISIBILITY.

TXZ118-119-240600-
DALLAS/FORT WORTH METROPLEX

CITY           SKY/WX    TMP DP  RH WIND       PRES   REMARKS
DFW AIRPORT    MOCLDY    75  58  55 S17G31    29.75S
DALLAS LOVE    MOCLDY    75  59  57 SE16G29   29.77S
FTW MEACHAM    PTCLDY    74  60  61 S16G23    29.73F
DAL-EXECUTIVE  PTCLDY    74  60  61 S14G21    29.77S
FTW-ALLIANCE   MOCLDY    74  58  57 S21G30    29.74S
FTW-NAS-JRB    PTCLDY    77  57  50 SE16G23   29.78S
FTW-SPINKS     PTCLDY    74  60  62 S18G26    29.77F
ARLINGTON      MOCLDY    74  59  59 SE15G24   29.75F
GRAND PRAIRIE  PTCLDY    73  57  56 SE15G21   29.79S
ADDISON        PTCLDY    74  58  56 S13G23    29.78S
MESQUITE       PTCLDY    72  62  71 S15G22    29.79R
LANCASTER      MOCLDY    72  59  64 S16       29.79R
$$

TXZ091>094-102>105-117-120-121-131>134-240600-
NORTH CENTRAL TEXAS

CITY           SKY/WX    TMP DP  RH WIND       PRES   REMARKS
SHRMAN/DENISON MOCLDY    70  59  67 E6        29.80S
GAINESVILLE    CLOUDY    72  57  60 SE9       29.79F
BOWIE          LGT RAIN  72  61  67 W12       29.81R
BRIDGEPORT     MOCLDY    73  57  56 SE13G20   29.75F
DECATUR        MOCLDY    72  57  59 SE14      29.76S
DENTON         MOCLDY    73  58  59 S17       29.75S
MCKINNEY       PTCLDY    72  63  73 S12       29.77F
GREENVILLE     CLEAR     68  59  73 SE7       29.80F
ROCKWALL       PTCLDY    71  64  78 SE9       29.77F
TERRELL        PTCLDY    73  65  75 S13       29.79F
WAXAHACHIE     MOCLDY    71  59  66 SE10G18   29.79R
CLEBURNE       PTCLDY    72  63  73 SE16G22   29.78F
GRANBURY       PTCLDY    74  61  63 SE10      29.76F
$$

TXZ083>090-098>101-113>116-127>130-139>142-154-155-240600-
WESTERN NORTH TEXAS

CITY           SKY/WX    TMP DP  RH WIND       PRES   REMARKS
WICHITA FALLS  CLOUDY    69  62  78 SE29G37   29.64F
WF-KICKAPOO    CLOUDY    71  62  73 SE30G45   29.69F
VERNON         PTCLDY    72  61  69 S23G31    29.64S
ABILENE        CLEAR     72  61  68 S15       29.71R
ABILENE-DYESS  CLEAR     74  60  60 S20       29.69S
BRECKENRIDGE   CLOUDY    78  60  53 S25G37    29.68F
GRAHAM         CLOUDY    75  59  57 SE10      29.69F
MINERAL WELLS  MOCLDY    73  60  63 SE13G22   29.72R
STEPHENVILLE   MOCLDY    73  60  65 S13G18    29.78R
COMANCHE       MOCLDY    73  61  64 S17G23    29.75R
BROWNWOOD      PTCLDY    73  61  64 S16G23    29.74S
COLEMAN        PTCLDY    74  59  60 S9        29.75R
BRADY          CLEAR     73  61  64 SE16      29.74R
$$

TXZ143>147-156>162-174-175-240600-
CENTRAL TEXAS

CITY           SKY/WX    TMP DP  RH WIND       PRES   REMARKS
WACO           CLOUDY    73  62  68 S16G26    29.78S
WACO-MCGREGOR  CLOUDY    72  59  64 S20G25    29.80S
HILLSBORO      MOCLDY    73  60  65 SE16G24   29.78S
CORSICANA      MOCLDY    72  63  73 S16       29.82S
MEXIA          CLOUDY    71  64  78 S12G17    29.81S
HEARNE         CLOUDY    72  64  75 SE12G21   29.83F
CAMERON        CLOUDY    71  63  74 S16G23    29.81F
TEMPLE         CLOUDY    72  57  60 SE20G31   29.82S
KILLEEN        PTCLDY    72  63  73 SE24G30   29.78R
KILLEEN-SKYLRK CLOUDY   N/A N/A N/A SE20G29   29.78R
GATESVILLE     CLOUDY    72  63  73 S15       29.79S
HAMILTON       CLOUDY    73  61  66 S23G29    29.77R
LAMPASAS       CLOUDY    72  65  78 S16G22    29.77S
$$

TXZ095>097-106>112-122>126-135>138-148>153-164>167-240600-
EAST TEXAS

CITY           SKY/WX    TMP DP  RH WIND       PRES   REMARKS
PARIS          PTCLDY    70  55  60 SE12      29.81F
SULPHUR SPRNGS PTCLDY    72  57  60 SE8       29.83F
CLARKSVILLE    PTCLDY    69  57  65 CALM      29.83R
MOUNT PLEASANT CLEAR     67  56  67 SE6       29.85S
GILMER         LGT RAIN  72  61  68 S7        29.85S
MINEOLA        CLEAR     72  61  68 SE5       29.84R
TYLER          PTCLDY    72  62  71 S12       29.83S
LONGVIEW       PTCLDY    70  61  73 S8        29.84F
MARSHALL       PTCLDY    68  58  70 SE3       29.88S
ATHENS         PTCLDY    70  61  73 S10G16    29.82S
PALESTINE      MOCLDY    72  61  70 SE7       29.87R
JACKSONVILLE   MOCLDY    69  62  78 S9        29.88S
HENDERSON      PTCLDY    70  61  74 S7        29.86F
NACOGDOCHES    CLOUDY    70  63  78 S9        29.88S
LUFKIN         CLOUDY    70  64  81 S7        29.87S
$$

SUPPLEMENTAL OBSERVATIONS (CENTRAL)

CITY           SKY/WX    TMP DP  RH WIND       PRES   REMARKS
PAT MAYSE LAKE   N/A     72  54  53 SE13        N/A
PALESTINE        N/A    N/A N/A N/A S8          N/A
MCGREGOR         N/A     72  61  68 S18G26      N/A
TEMPLE           N/A     72  63  73 S18G24      N/A
$$

SUPPLEMENTAL OBSERVATIONS (WEST)

CITY           SKY/WX    TMP DP  RH WIND       PRES   REMARKS
MILLERS CREEK    N/A     73  63  68 S12G23      N/A
POSSUM KINGDOM   N/A     75  59  57 SE16G24     N/A
GRANBURY         N/A    N/A N/A N/A SE12        N/A
HAMBY            N/A    N/A N/A N/A S16G22      N/A
IVIE RESERVOIR   N/A     75  57  53 SE6G17      N/A
COLORADO BEND    N/A     72  63  73 S16G29      N/A
$$

SUPPLEMENTAL OBSERVATIONS (EAST)

CITY           SKY/WX    TMP DP  RH WIND       PRES   REMARKS
CLARKSVILLE      N/A     68  57  68 SE7         N/A
TEXARKANA        N/A     66  52  59 SE3         N/A
LINDEN           N/A     66  57  72 S1          N/A
GILMER           N/A     72  61  68 S6          N/A
HENDERSON        N/A     70  63  78 S8          N/A
N SABINE NF      N/A     66  63  88 MISG        N/A
S SABINE NF      N/A     66  63  88 SW1         N/A
$$

SUPPLEMENTAL OBSERVATIONS ARE A COLLECTION OF AUTOMATED INSTRUMENTS
THAT ARE MAINTAINED BY A VARIETY OF FEDERAL AND STATE AGENCIES.
CERTAIN ELEMENTS...SUCH AS HUMIDITY VALUES AND SUSTAINED WIND
SPEEDS...MAY BE APPROXIMATED.